Tracking 18980 objects as of 23-Feb-2018
HD Live streaming from Space Station
objects crossing your sky now

SL-16 DEB

Track SL-16 DEB now!
10-day predictions


NORAD ID: 36031
Int'l Code: 1996-051N
Perigee: 750.8 km
Apogee: 762.4 km
Inclination: 70.9 °
Period: 99.8 minutes
Semi major axis: 7127 km
RCS: 0.0057 m2 (small)
Launch date: September 4, 1996
Source: Commonwealth of Independent States (former USSR) (CIS)
Launch site: TYURATAM MISSILE AND SPACE COMPLEX (TTMTR)

Note: This is SATELLITE DEBRIS
aabbcc
Your satellite tracking list
Your tracking list is empty




NASA's NSSDC Master Catalog

Two Line Element Set (TLE):
1 36031U 96051N   18053.56502497 +.00002044 +00000-0 +62869-3 0  9993
2 36031 070.8521 104.1487 0008089 072.0675 000.6909 14.42736349435307
Source of the keplerian elements: AFSPC